{"data":{"norad_id":40549,"intl_designator":"2015-019A","name":"BEIDOU-3S IGSO-1S (C31)","alt_names":[],"object_type":"PAYLOAD","status":"INACTIVE","operator":null,"country":"PRC","launch_date":"2015-03-30","launch_site_code":"XICLF","launch_vehicle":null,"mission":null,"orbit_class":"UNKNOWN","rcs_meters":11.7883,"size_class":null,"mass_kg":null,"dimensions":null,"purposes":["comms","nav"],"wikipedia_slug":null,"has_3d_model":false,"image_url":null,"decayed_at":null,"tle_current":{"epoch":"2026-05-24T21:22:21.633024Z","epoch_age_seconds":84547,"freshness":"FRESH","line1":"1 40549U 15019A   26144.89052816 -.00000189  00000+0  00000+0 0  9991","line2":"2 40549  49.2396 295.7389 0038013 189.7987 170.8287  1.00255053 40844","mean_motion":1.00255053,"eccentricity":0.0038013,"inclination_deg":49.2396,"raan_deg":295.7389,"arg_perigee_deg":189.7987,"mean_anomaly_deg":170.8287,"bstar":0,"rev_number":4084,"period_min":1436.3365804614,"perigee_km":35630.987572116,"apogee_km":35951.58482894,"semimajor_km":42169.423200528,"source":"CELESTRAK","updated_at":"2026-05-25T13:38:24.213294Z"}}}